contact:dominique.lefevre@mio.osupytheas.fr, maurice.libes@osupytheas.fr, didier.mallarino@osupytheas.fr
Project:EMSO http://www.emso-fr.org/EMSO-France
Depth: 2436.0 m
Title:EMSO Ligure Ouest : Data MII capteur CSTAR
DateTime,Latitude,Longitude,Instrument_Serial,Reference_Counts,Signal_Counts,Corrected_Signal_raw_counts,Calculated_Beam_c_inverse_meters,Internal_thermistor_counts
DateTime,Latitude,Longitude,Instrument_Serial,Reference_Counts,Signal_Counts,Corrected_Signal_raw_counts,Calculated_Beam_c_inverse_meters,Internal_thermistor_counts
2021-05-01T00:00:31,42.805,6.029,CST-1368DR,5494,7675,15000,0.161,550
2021-05-01T00:03:33,42.805,6.029,CST-1368DR,5494,7674,14999,0.161,551
2021-05-01T00:06:35,42.805,6.029,CST-1368DR,5494,7675,15000,0.161,551
2021-05-01T00:09:36,42.805,6.029,CST-1368DR,5494,7675,15000,0.161,551
2021-05-01T00:12:38,42.805,6.029,CST-1368DR,5494,7674,14998,0.162,551
2021-05-01T00:15:39,42.805,6.029,CST-1368DR,5494,7675,15000,0.161,551
2021-05-01T00:18:41,42.805,6.029,CST-1368DR,5494,7674,14999,0.161,551
2021-05-01T00:21:42,42.805,6.029,CST-1368DR,5494,7674,14998,0.162,551
2021-05-01T00:24:44,42.805,6.029,CST-1368DR,5494,7674,14998,0.162,551
2021-05-01T00:27:46,42.805,6.029,CST-1368DR,5494,7673,14997,0.162,551
2021-05-01T00:30:47,42.805,6.029,CST-1368DR,5494,7674,14998,0.162,551
2021-05-01T00:33:49,42.805,6.029,CST-1368DR,5494,7673,14997,0.162,551
2021-05-01T00:36:50,42.805,6.029,CST-1368DR,5494,7674,14998,0.162,551
2021-05-01T00:39:52,42.805,6.029,CST-1368DR,5494,7674,14999,0.161,551
2021-05-01T00:42:53,42.805,6.029,CST-1368DR,5494,7674,14999,0.161,551
2021-05-01T00:45:55,42.805,6.029,CST-1368DR,5494,7673,14996,0.162,551
2021-05-01T00:48:57,42.805,6.029,CST-1368DR,5494,7674,14999,0.161,551
2021-05-01T00:51:58,42.805,6.029,CST-1368DR,5494,7674,14998,0.162,551
2021-05-01T00:55:00,42.805,6.029,CST-1368DR,5494,7674,14999,0.161,551
2021-05-01T00:58:01,42.805,6.029,CST-1368DR,5494,7674,14999,0.161,551
2021-05-01T01:01:03,42.805,6.029,CST-1368DR,5494,7674,14998,0.162,551
2021-05-01T01:04:05,42.805,6.029,CST-1368DR,5494,7675,15000,0.161,551
2021-05-01T01:07:06,42.805,6.029,CST-1368DR,5494,7673,14996,0.162,551
2021-05-01T01:10:08,42.805,6.029,CST-1368DR,5494,7674,14998,0.162,551
2021-05-01T01:13:09,42.805,6.029,CST-1368DR,5494,7674,14998,0.162,551
2021-05-01T01:16:11,42.805,6.029,CST-1368DR,5494,7674,14999,0.161,551
2021-05-01T01:19:12,42.805,6.029,CST-1368DR,5494,7674,14999,0.161,551
2021-05-01T01:22:14,42.805,6.029,CST-1368DR,5494,7675,15000,0.161,551
2021-05-01T01:25:16,42.805,6.029,CST-1368DR,5494,7674,14998,0.162,551
2021-05-01T01:28:17,42.805,6.029,CST-1368DR,5494,7675,15000,0.161,551
2021-05-01T01:31:19,42.805,6.029,CST-1368DR,5494,7675,15000,0.161,551
2021-05-01T01:34:20,42.805,6.029,CST-1368DR,5494,7675,15000,0.161,551
2021-05-01T01:37:22,42.805,6.029,CST-1368DR,5494,7674,14998,0.162,551
2021-05-01T01:40:24,42.805,6.029,CST-1368DR,5494,7674,14998,0.162,551
2021-05-01T01:43:25,42.805,6.029,CST-1368DR,5494,7674,14998,0.162,551
2021-05-01T01:46:27,42.805,6.029,CST-1368DR,5494,7674,14998,0.162,551
2021-05-01T01:49:28,42.805,6.029,CST-1368DR,5494,7673,14997,0.162,551
2021-05-01T01:52:30,42.805,6.029,CST-1368DR,5494,7674,14998,0.162,551
2021-05-01T01:55:31,42.805,6.029,CST-1368DR,5494,7673,14996,0.162,551
2021-05-01T01:58:33,42.805,6.029,CST-1368DR,5494,7674,14998,0.162,551
2021-05-01T02:01:35,42.805,6.029,CST-1368DR,5494,7673,14997,0.162,551
2021-05-01T02:04:36,42.805,6.029,CST-1368DR,5494,7673,14997,0.162,551
2021-05-01T02:07:38,42.805,6.029,CST-1368DR,5494,7673,14997,0.162,551
2021-05-01T02:10:39,42.805,6.029,CST-1368DR,5494,7674,14998,0.162,551
2021-05-01T02:13:41,42.805,6.029,CST-1368DR,5494,7673,14997,0.162,551
2021-05-01T02:16:42,42.805,6.029,CST-1368DR,5494,7674,14998,0.162,551
2021-05-01T02:19:44,42.805,6.029,CST-1368DR,5494,7673,14997,0.162,551
2021-05-01T02:22:46,42.805,6.029,CST-1368DR,5494,7673,14997,0.162,551
2021-05-01T02:25:47,42.805,6.029,CST-1368DR,5494,7674,14998,0.162,551
2021-05-01T02:28:49,42.805,6.029,CST-1368DR,5494,7673,14997,0.162,551
2021-05-01T02:31:50,42.805,6.029,CST-1368DR,5494,7673,14997,0.162,551
2021-05-01T02:34:52,42.805,6.029,CST-1368DR,5494,7674,14998,0.162,551
2021-05-01T02:37:54,42.805,6.029,CST-1368DR,5494,7673,14997,0.162,551
2021-05-01T02:40:55,42.805,6.029,CST-1368DR,5494,7673,14997,0.162,551
2021-05-01T02:43:57,42.805,6.029,CST-1368DR,5494,7674,14998,0.162,551
2021-05-01T02:46:58,42.805,6.029,CST-1368DR,5494,7674,14999,0.161,551
2021-05-01T02:50:00,42.805,6.029,CST-1368DR,5494,7673,14997,0.162,551
2021-05-01T02:53:01,42.805,6.029,CST-1368DR,5494,7674,14998,0.162,551
2021-05-01T02:56:03,42.805,6.029,CST-1368DR,5494,7674,14998,0.162,551
2021-05-01T02:59:05,42.805,6.029,CST-1368DR,5494,7674,14998,0.162,551
2021-05-01T03:02:06,42.805,6.029,CST-1368DR,5494,7674,14998,0.162,551
2021-05-01T03:05:08,42.805,6.029,CST-1368DR,5493,7673,15000,0.161,551
2021-05-01T03:08:09,42.805,6.029,CST-1368DR,5494,7673,14997,0.162,551
2021-05-01T03:11:11,42.805,6.029,CST-1368DR,5493,7674,15000,0.161,551
2021-05-01T03:14:12,42.805,6.029,CST-1368DR,5493,7673,14999,0.161,551
2021-05-01T03:17:14,42.805,6.029,CST-1368DR,5493,7673,14999,0.161,551
2021-05-01T03:20:16,42.805,6.029,CST-1368DR,5493,7674,15000,0.161,551
2021-05-01T03:23:17,42.805,6.029,CST-1368DR,5494,7674,14998,0.162,551
2021-05-01T03:26:19,42.805,6.029,CST-1368DR,5493,7673,15000,0.161,551
2021-05-01T03:29:20,42.805,6.029,CST-1368DR,5493,7673,14999,0.161,551
2021-05-01T03:32:22,42.805,6.029,CST-1368DR,5493,7673,14999,0.161,551
2021-05-01T03:35:24,42.805,6.029,CST-1368DR,5493,7673,15000,0.161,551
2021-05-01T03:38:25,42.805,6.029,CST-1368DR,5493,7673,15000,0.161,551
2021-05-01T03:41:27,42.805,6.029,CST-1368DR,5493,7673,14999,0.161,551
2021-05-01T03:44:28,42.805,6.029,CST-1368DR,5493,7673,15000,0.161,551
2021-05-01T03:47:30,42.805,6.029,CST-1368DR,5493,7672,14998,0.162,551
2021-05-01T03:50:31,42.805,6.029,CST-1368DR,5493,7674,15000,0.161,551
2021-05-01T03:53:33,42.805,6.029,CST-1368DR,5493,7672,14996,0.162,551
2021-05-01T03:56:35,42.805,6.029,CST-1368DR,5493,7672,14997,0.162,551
2021-05-01T03:59:36,42.805,6.029,CST-1368DR,5493,7672,14998,0.162,551
2021-05-01T04:02:38,42.805,6.029,CST-1368DR,5493,7672,14998,0.162,551
2021-05-01T04:05:39,42.805,6.029,CST-1368DR,5493,7672,14997,0.162,551
2021-05-01T04:08:41,42.805,6.029,CST-1368DR,5493,7670,14994,0.163,551
2021-05-01T04:11:42,42.805,6.029,CST-1368DR,5493,7672,14997,0.162,551
2021-05-01T04:14:44,42.805,6.029,CST-1368DR,5493,7671,14996,0.162,551
2021-05-01T04:17:46,42.805,6.029,CST-1368DR,5493,7672,14996,0.162,551
2021-05-01T04:20:47,42.805,6.029,CST-1368DR,5493,7668,14990,0.164,550
2021-05-01T04:23:49,42.805,6.029,CST-1368DR,5493,7672,14997,0.162,551
2021-05-01T04:26:50,42.805,6.029,CST-1368DR,5493,7670,14993,0.163,551
2021-05-01T04:29:52,42.805,6.029,CST-1368DR,5493,7670,14993,0.163,551
2021-05-01T04:32:54,42.805,6.029,CST-1368DR,5493,7672,14996,0.162,551
2021-05-01T04:35:55,42.805,6.029,CST-1368DR,5493,7672,14997,0.162,550
2021-05-01T04:38:57,42.805,6.029,CST-1368DR,5493,7672,14997,0.162,551
2021-05-01T04:41:58,42.805,6.029,CST-1368DR,5493,7673,14998,0.162,551
2021-05-01T04:45:00,42.805,6.029,CST-1368DR,5493,7672,14997,0.162,551
2021-05-01T04:48:01,42.805,6.029,CST-1368DR,5493,7671,14995,0.162,551
2021-05-01T04:51:03,42.805,6.029,CST-1368DR,5493,7672,14996,0.162,551
2021-05-01T04:54:05,42.805,6.029,CST-1368DR,5493,7671,14994,0.163,551
2021-05-01T04:57:06,42.805,6.029,CST-1368DR,5493,7670,14993,0.163,551
2021-05-01T05:00:08,42.805,6.029,CST-1368DR,5493,7671,14996,0.162,551
2021-05-01T05:03:09,42.805,6.029,CST-1368DR,5493,7671,14994,0.163,551
2021-05-01T05:06:11,42.805,6.029,CST-1368DR,5493,7670,14994,0.163,551
2021-05-01T05:09:13,42.805,6.029,CST-1368DR,5493,7670,14992,0.163,550
2021-05-01T05:12:14,42.805,6.029,CST-1368DR,5493,7672,14997,0.162,551
2021-05-01T05:15:16,42.805,6.029,CST-1368DR,5493,7671,14994,0.163,551
2021-05-01T05:18:17,42.805,6.029,CST-1368DR,5493,7669,14992,0.163,550
2021-05-01T05:21:19,42.805,6.029,CST-1368DR,5493,7670,14994,0.163,551
2021-05-01T05:24:20,42.805,6.029,CST-1368DR,5493,7670,14994,0.163,551
2021-05-01T05:27:22,42.805,6.029,CST-1368DR,5493,7671,14994,0.163,551
2021-05-01T05:30:24,42.805,6.029,CST-1368DR,5493,7671,14996,0.162,551
2021-05-01T05:33:25,42.805,6.029,CST-1368DR,5493,7671,14994,0.163,551
2021-05-01T05:36:27,42.805,6.029,CST-1368DR,5493,7670,14994,0.163,551
2021-05-01T05:39:28,42.805,6.029,CST-1368DR,5493,7671,14995,0.162,551
2021-05-01T05:42:30,42.805,6.029,CST-1368DR,5493,7671,14996,0.162,551
2021-05-01T05:45:31,42.805,6.029,CST-1368DR,5493,7670,14993,0.163,551
2021-05-01T05:48:33,42.805,6.029,CST-1368DR,5493,7672,14996,0.162,551
2021-05-01T05:51:35,42.805,6.029,CST-1368DR,5493,7672,14997,0.162,551
2021-05-01T05:54:36,42.805,6.029,CST-1368DR,5493,7670,14993,0.163,550
2021-05-01T05:57:38,42.805,6.029,CST-1368DR,5493,7672,14997,0.162,551
2021-05-01T06:00:39,42.805,6.029,CST-1368DR,5493,7671,14995,0.162,551
2021-05-01T06:03:41,42.805,6.029,CST-1368DR,5493,7671,14994,0.163,551
2021-05-01T06:06:43,42.805,6.029,CST-1368DR,5493,7670,14993,0.163,551
2021-05-01T06:09:44,42.805,6.029,CST-1368DR,5493,7670,14994,0.163,551
2021-05-01T06:12:46,42.805,6.029,CST-1368DR,5493,7671,14996,0.162,551
2021-05-01T06:15:47,42.805,6.029,CST-1368DR,5493,7671,14996,0.162,551
2021-05-01T06:18:49,42.805,6.029,CST-1368DR,5493,7670,14992,0.163,551
2021-05-01T06:21:50,42.805,6.029,CST-1368DR,5493,7669,14991,0.163,551
2021-05-01T06:24:52,42.805,6.029,CST-1368DR,5493,7670,14994,0.163,551
2021-05-01T06:27:54,42.805,6.029,CST-1368DR,5493,7671,14996,0.162,551
2021-05-01T06:30:55,42.805,6.029,CST-1368DR,5493,7671,14996,0.162,551
2021-05-01T06:33:57,42.805,6.029,CST-1368DR,5493,7671,14995,0.162,551
2021-05-01T06:36:58,42.805,6.029,CST-1368DR,5493,7669,14992,0.163,551
2021-05-01T06:40:00,42.805,6.029,CST-1368DR,5493,7671,14995,0.162,551
2021-05-01T06:43:02,42.805,6.029,CST-1368DR,5493,7670,14993,0.163,551
2021-05-01T06:46:03,42.805,6.029,CST-1368DR,5493,7667,14987,0.164,551
2021-05-01T06:49:05,42.805,6.029,CST-1368DR,5493,7670,14993,0.163,551
2021-05-01T06:52:06,42.805,6.029,CST-1368DR,5493,7671,14994,0.163,551
2021-05-01T06:55:08,42.805,6.029,CST-1368DR,5493,7671,14996,0.162,551
2021-05-01T06:58:09,42.805,6.029,CST-1368DR,5493,7669,14990,0.164,551
2021-05-01T07:01:11,42.805,6.029,CST-1368DR,5493,7671,14995,0.162,551
2021-05-01T07:04:13,42.805,6.029,CST-1368DR,5493,7670,14994,0.163,551
2021-05-01T07:07:14,42.805,6.029,CST-1368DR,5493,7671,14994,0.163,551
2021-05-01T07:10:16,42.805,6.029,CST-1368DR,5493,7671,14995,0.162,551
2021-05-01T07:13:17,42.805,6.029,CST-1368DR,5493,7670,14994,0.163,551
2021-05-01T07:16:19,42.805,6.029,CST-1368DR,5493,7671,14996,0.162,551
2021-05-01T07:19:20,42.805,6.029,CST-1368DR,5493,7671,14996,0.162,551
2021-05-01T07:22:22,42.805,6.029,CST-1368DR,5493,7670,14994,0.163,551
2021-05-01T07:25:24,42.805,6.029,CST-1368DR,5493,7669,14991,0.163,551
2021-05-01T07:28:25,42.805,6.029,CST-1368DR,5493,7670,14992,0.163,551
2021-05-01T07:31:27,42.805,6.029,CST-1368DR,5493,7671,14994,0.163,551
2021-05-01T07:34:28,42.805,6.029,CST-1368DR,5493,7671,14994,0.163,551
2021-05-01T07:37:30,42.805,6.029,CST-1368DR,5493,7670,14993,0.163,551
2021-05-01T07:40:32,42.805,6.029,CST-1368DR,5493,7670,14992,0.163,551
2021-05-01T07:43:33,42.805,6.029,CST-1368DR,5493,7669,14991,0.163,551
2021-05-01T07:46:35,42.805,6.029,CST-1368DR,5493,7670,14993,0.163,551
2021-05-01T07:49:36,42.805,6.029,CST-1368DR,5493,7670,14993,0.163,551
2021-05-01T07:52:38,42.805,6.029,CST-1368DR,5493,7670,14993,0.163,551
2021-05-01T07:55:39,42.805,6.029,CST-1368DR,5493,7672,14997,0.162,551
2021-05-01T07:58:41,42.805,6.029,CST-1368DR,5493,7670,14994,0.163,551
2021-05-01T08:01:43,42.805,6.029,CST-1368DR,5493,7671,14994,0.163,551
2021-05-01T08:04:44,42.805,6.029,CST-1368DR,5493,7668,14989,0.164,551
2021-05-01T08:07:46,42.805,6.029,CST-1368DR,5493,7670,14993,0.163,551
2021-05-01T08:10:47,42.805,6.029,CST-1368DR,5493,7670,14993,0.163,551
2021-05-01T08:13:49,42.805,6.029,CST-1368DR,5493,7670,14994,0.163,551
2021-05-01T08:16:51,42.805,6.029,CST-1368DR,5493,7669,14990,0.164,551
2021-05-01T08:19:52,42.805,6.029,CST-1368DR,5493,7671,14995,0.162,551
2021-05-01T08:22:54,42.805,6.029,CST-1368DR,5493,7670,14992,0.163,551
2021-05-01T08:25:55,42.805,6.029,CST-1368DR,5493,7670,14993,0.163,551
2021-05-01T08:28:57,42.805,6.029,CST-1368DR,5493,7672,14996,0.162,551
2021-05-01T08:31:58,42.805,6.029,CST-1368DR,5493,7664,14982,0.166,551
2021-05-01T08:35:00,42.805,6.029,CST-1368DR,5493,7671,14994,0.163,551
2021-05-01T08:38:02,42.805,6.029,CST-1368DR,5493,7671,14994,0.163,551
2021-05-01T08:41:03,42.805,6.029,CST-1368DR,5493,7670,14993,0.163,551
2021-05-01T08:44:05,42.805,6.029,CST-1368DR,5493,7670,14992,0.163,551
2021-05-01T08:47:06,42.805,6.029,CST-1368DR,5493,7670,14993,0.163,551
2021-05-01T08:50:08,42.805,6.029,CST-1368DR,5493,7670,14993,0.163,551
2021-05-01T08:53:10,42.805,6.029,CST-1368DR,5493,7670,14992,0.163,551
2021-05-01T08:56:11,42.805,6.029,CST-1368DR,5493,7669,14992,0.163,551
2021-05-01T08:59:13,42.805,6.029,CST-1368DR,5493,7670,14993,0.163,551
2021-05-01T09:02:14,42.805,6.029,CST-1368DR,5493,7670,14992,0.163,551
2021-05-01T09:05:16,42.805,6.029,CST-1368DR,5493,7669,14991,0.163,551
2021-05-01T09:08:17,42.805,6.029,CST-1368DR,5493,7670,14994,0.163,551
2021-05-01T09:11:19,42.805,6.029,CST-1368DR,5493,7670,14992,0.163,551
2021-05-01T09:14:21,42.805,6.029,CST-1368DR,5493,7668,14989,0.164,551
2021-05-01T09:17:22,42.805,6.029,CST-1368DR,5493,7670,14992,0.163,551
2021-05-01T09:20:24,42.805,6.029,CST-1368DR,5493,7671,14995,0.162,551
2021-05-01T09:23:25,42.805,6.029,CST-1368DR,5493,7669,14992,0.163,551
2021-05-01T09:26:27,42.805,6.029,CST-1368DR,5493,7668,14989,0.164,551
2021-05-01T09:29:28,42.805,6.029,CST-1368DR,5493,7670,14993,0.163,551
2021-05-01T09:32:30,42.805,6.029,CST-1368DR,5493,7668,14989,0.164,551
2021-05-01T09:35:32,42.805,6.029,CST-1368DR,5493,7668,14989,0.164,551
2021-05-01T09:38:33,42.805,6.029,CST-1368DR,5493,7670,14993,0.163,551
2021-05-01T09:41:35,42.805,6.029,CST-1368DR,5493,7668,14990,0.164,551
2021-05-01T09:44:36,42.805,6.029,CST-1368DR,5493,7669,14992,0.163,551
2021-05-01T09:47:38,42.805,6.029,CST-1368DR,5493,7671,14994,0.163,551
2021-05-01T09:50:40,42.805,6.029,CST-1368DR,5493,7670,14993,0.163,551
2021-05-01T09:53:41,42.805,6.029,CST-1368DR,5492,7669,14994,0.163,551
2021-05-01T09:56:43,42.805,6.029,CST-1368DR,5493,7670,14993,0.163,551
2021-05-01T09:59:44,42.805,6.029,CST-1368DR,5493,7668,14990,0.164,551
2021-05-01T10:02:46,42.805,6.029,CST-1368DR,5493,7668,14988,0.164,551
2021-05-01T10:05:47,42.805,6.029,CST-1368DR,5492,7670,14995,0.162,551
2021-05-01T10:08:49,42.805,6.029,CST-1368DR,5492,7669,14994,0.163,551
2021-05-01T10:11:51,42.805,6.029,CST-1368DR,5493,7669,14991,0.163,551
2021-05-01T10:14:52,42.805,6.029,CST-1368DR,5493,7668,14988,0.164,551
2021-05-01T10:17:54,42.805,6.029,CST-1368DR,5493,7670,14993,0.163,551
2021-05-01T10:20:55,42.805,6.029,CST-1368DR,5493,7668,14989,0.164,551
2021-05-01T10:23:57,42.805,6.029,CST-1368DR,5493,7671,14994,0.163,551
2021-05-01T10:26:59,42.805,6.029,CST-1368DR,5493,7669,14992,0.163,551
2021-05-01T10:30:00,42.805,6.029,CST-1368DR,5493,7671,14994,0.163,551
2021-05-01T10:33:02,42.805,6.029,CST-1368DR,5492,7670,14996,0.162,551
2021-05-01T10:36:03,42.805,6.029,CST-1368DR,5493,7669,14990,0.164,551
2021-05-01T10:39:05,42.805,6.029,CST-1368DR,5493,7670,14993,0.163,551
2021-05-01T10:42:06,42.805,6.029,CST-1368DR,5492,7668,14992,0.163,551
2021-05-01T10:45:08,42.805,6.029,CST-1368DR,5492,7670,14995,0.162,551
2021-05-01T10:48:10,42.805,6.029,CST-1368DR,5492,7669,14994,0.163,551
2021-05-01T10:51:11,42.805,6.029,CST-1368DR,5493,7669,14991,0.163,551
2021-05-01T10:54:13,42.805,6.029,CST-1368DR,5492,7669,14995,0.162,551
2021-05-01T10:57:14,42.805,6.029,CST-1368DR,5493,7669,14991,0.163,551
2021-05-01T11:00:16,42.805,6.029,CST-1368DR,5492,7671,14998,0.162,551
2021-05-01T11:03:17,42.805,6.029,CST-1368DR,5493,7671,14994,0.163,551
2021-05-01T11:06:19,42.805,6.029,CST-1368DR,5493,7668,14988,0.164,551
2021-05-01T11:09:21,42.805,6.029,CST-1368DR,5493,7670,14993,0.163,551
2021-05-01T11:12:22,42.805,6.029,CST-1368DR,5493,7668,14989,0.164,551
2021-05-01T11:15:24,42.805,6.029,CST-1368DR,5493,7671,14996,0.162,551
2021-05-01T11:18:25,42.805,6.029,CST-1368DR,5492,7668,14993,0.163,551
2021-05-01T11:21:27,42.805,6.029,CST-1368DR,5492,7670,14995,0.162,551
2021-05-01T11:24:29,42.805,6.029,CST-1368DR,5492,7669,14995,0.162,551
2021-05-01T11:27:30,42.805,6.029,CST-1368DR,5492,7670,14995,0.162,551
2021-05-01T11:30:32,42.805,6.029,CST-1368DR,5492,7669,14994,0.163,551
2021-05-01T11:33:33,42.805,6.029,CST-1368DR,5492,7670,14995,0.162,551
2021-05-01T11:36:35,42.805,6.029,CST-1368DR,5492,7670,14995,0.162,551
2021-05-01T11:39:36,42.805,6.029,CST-1368DR,5492,7670,14996,0.162,551
2021-05-01T11:42:38,42.805,6.029,CST-1368DR,5492,7667,14989,0.164,551
2021-05-01T11:45:40,42.805,6.029,CST-1368DR,5492,7671,14997,0.162,551
2021-05-01T11:48:41,42.805,6.029,CST-1368DR,5492,7669,14995,0.162,551
2021-05-01T11:51:43,42.805,6.029,CST-1368DR,5492,7668,14992,0.163,551
2021-05-01T11:54:44,42.805,6.029,CST-1368DR,5492,7670,14995,0.162,551
2021-05-01T11:57:46,42.805,6.029,CST-1368DR,5492,7668,14992,0.163,551
2021-05-01T12:00:48,42.805,6.029,CST-1368DR,5492,7671,14998,0.162,550
2021-05-01T12:03:49,42.805,6.029,CST-1368DR,5493,7670,14993,0.163,551
2021-05-01T12:06:51,42.805,6.029,CST-1368DR,5492,7670,14996,0.162,551
2021-05-01T12:09:52,42.805,6.029,CST-1368DR,5492,7668,14992,0.163,551
2021-05-01T12:12:54,42.805,6.029,CST-1368DR,5492,7669,14995,0.162,551
2021-05-01T12:15:55,42.805,6.029,CST-1368DR,5492,7669,14994,0.163,551
2021-05-01T12:18:57,42.805,6.029,CST-1368DR,5492,7669,14995,0.162,551
2021-05-01T12:21:59,42.805,6.029,CST-1368DR,5492,7670,14996,0.162,551
2021-05-01T12:25:00,42.805,6.029,CST-1368DR,5492,7670,14996,0.162,551
2021-05-01T12:28:02,42.805,6.029,CST-1368DR,5492,7666,14987,0.164,551
2021-05-01T12:31:03,42.805,6.029,CST-1368DR,5492,7671,14997,0.162,551
2021-05-01T12:34:05,42.805,6.029,CST-1368DR,5492,7669,14993,0.163,551
2021-05-01T12:37:06,42.805,6.029,CST-1368DR,5492,7666,14988,0.164,551
2021-05-01T12:40:08,42.805,6.029,CST-1368DR,5492,7669,14994,0.163,551
2021-05-01T12:43:10,42.805,6.029,CST-1368DR,5492,7668,14993,0.163,551
2021-05-01T12:46:11,42.805,6.029,CST-1368DR,5492,7669,14993,0.163,551
2021-05-01T12:49:13,42.805,6.029,CST-1368DR,5492,7670,14995,0.162,551
2021-05-01T12:52:14,42.805,6.029,CST-1368DR,5492,7668,14992,0.163,551
2021-05-01T12:55:16,42.805,6.029,CST-1368DR,5492,7670,14995,0.162,551
2021-05-01T12:58:18,42.805,6.029,CST-1368DR,5492,7670,14995,0.162,551
2021-05-01T13:01:19,42.805,6.029,CST-1368DR,5492,7668,14991,0.163,551
2021-05-01T13:04:21,42.805,6.029,CST-1368DR,5492,7671,14997,0.162,551
2021-05-01T13:07:22,42.805,6.029,CST-1368DR,5492,7666,14989,0.164,551
2021-05-01T13:10:24,42.805,6.029,CST-1368DR,5492,7670,14995,0.162,551
2021-05-01T13:13:25,42.805,6.029,CST-1368DR,5492,7667,14989,0.164,551
2021-05-01T13:16:27,42.805,6.029,CST-1368DR,5492,7670,14995,0.162,551
2021-05-01T13:19:29,42.805,6.029,CST-1368DR,5492,7669,14994,0.163,551
2021-05-01T13:22:30,42.805,6.029,CST-1368DR,5492,7669,14995,0.162,551
2021-05-01T13:25:32,42.805,6.029,CST-1368DR,5492,7669,14994,0.163,551
2021-05-01T13:28:33,42.805,6.029,CST-1368DR,5492,7667,14990,0.164,551
2021-05-01T13:31:35,42.805,6.029,CST-1368DR,5492,7669,14994,0.163,551
2021-05-01T13:34:37,42.805,6.029,CST-1368DR,5492,7669,14995,0.162,551
2021-05-01T13:37:38,42.805,6.029,CST-1368DR,5492,7666,14989,0.164,551
2021-05-01T13:40:40,42.805,6.029,CST-1368DR,5492,7668,14991,0.163,551
2021-05-01T13:43:41,42.805,6.029,CST-1368DR,5492,7670,14995,0.162,551
2021-05-01T13:46:43,42.805,6.029,CST-1368DR,5492,7670,14995,0.162,550
2021-05-01T13:49:44,42.805,6.029,CST-1368DR,5492,7667,14990,0.164,551
2021-05-01T13:52:46,42.805,6.029,CST-1368DR,5492,7669,14994,0.163,551
2021-05-01T13:55:48,42.805,6.029,CST-1368DR,5492,7668,14991,0.163,551
2021-05-01T13:58:49,42.805,6.029,CST-1368DR,5492,7668,14993,0.163,551
2021-05-01T14:01:51,42.805,6.029,CST-1368DR,5492,7669,14994,0.163,551
2021-05-01T14:04:52,42.805,6.029,CST-1368DR,5492,7668,14991,0.163,551
2021-05-01T14:07:54,42.805,6.029,CST-1368DR,5492,7670,14996,0.162,551
2021-05-01T14:10:55,42.805,6.029,CST-1368DR,5492,7668,14991,0.163,551
2021-05-01T14:13:57,42.805,6.029,CST-1368DR,5492,7670,14995,0.162,551
2021-05-01T14:16:59,42.805,6.029,CST-1368DR,5492,7668,14992,0.163,551
2021-05-01T14:20:00,42.805,6.029,CST-1368DR,5492,7668,14993,0.163,551
2021-05-01T14:23:02,42.805,6.029,CST-1368DR,5492,7666,14988,0.164,551
2021-05-01T14:26:03,42.805,6.029,CST-1368DR,5492,7666,14988,0.164,551
2021-05-01T14:29:05,42.805,6.029,CST-1368DR,5492,7669,14994,0.163,551
2021-05-01T14:32:07,42.805,6.029,CST-1368DR,5492,7667,14990,0.164,551
2021-05-01T14:35:08,42.805,6.029,CST-1368DR,5492,7665,14985,0.165,551
2021-05-01T14:38:10,42.805,6.029,CST-1368DR,5492,7669,14994,0.163,551
2021-05-01T14:41:11,42.805,6.029,CST-1368DR,5492,7665,14987,0.164,551
2021-05-01T14:44:13,42.805,6.029,CST-1368DR,5492,7668,14992,0.163,551
2021-05-01T14:47:14,42.805,6.029,CST-1368DR,5492,7668,14992,0.163,551
2021-05-01T14:50:16,42.805,6.029,CST-1368DR,5492,7666,14988,0.164,551
2021-05-01T14:53:18,42.805,6.029,CST-1368DR,5492,7669,14994,0.163,551
2021-05-01T14:56:19,42.805,6.029,CST-1368DR,5492,7666,14987,0.164,551
2021-05-01T14:59:21,42.805,6.029,CST-1368DR,5492,7668,14992,0.163,551
2021-05-01T15:02:22,42.805,6.029,CST-1368DR,5492,7668,14992,0.163,551
2021-05-01T15:05:24,42.805,6.029,CST-1368DR,5492,7666,14988,0.164,551
2021-05-01T15:08:26,42.805,6.029,CST-1368DR,5492,7669,14993,0.163,551
2021-05-01T15:11:27,42.805,6.029,CST-1368DR,5492,7669,14994,0.163,551
2021-05-01T15:14:29,42.805,6.029,CST-1368DR,5492,7669,14993,0.163,551
2021-05-01T15:17:30,42.805,6.029,CST-1368DR,5492,7666,14988,0.164,551
2021-05-01T15:20:32,42.805,6.029,CST-1368DR,5492,7668,14992,0.163,551
2021-05-01T15:23:33,42.805,6.029,CST-1368DR,5492,7667,14990,0.164,551
2021-05-01T15:26:35,42.805,6.029,CST-1368DR,5492,7669,14993,0.163,551
2021-05-01T15:29:37,42.805,6.029,CST-1368DR,5492,7669,14993,0.163,551
2021-05-01T15:32:38,42.805,6.029,CST-1368DR,5492,7669,14995,0.162,551
2021-05-01T15:35:40,42.805,6.029,CST-1368DR,5492,7667,14990,0.164,551
2021-05-01T15:38:41,42.805,6.029,CST-1368DR,5492,7668,14992,0.163,551
2021-05-01T15:41:43,42.805,6.029,CST-1368DR,5492,7669,14994,0.163,551
2021-05-01T15:44:44,42.805,6.029,CST-1368DR,5492,7669,14994,0.163,551
2021-05-01T15:47:46,42.805,6.029,CST-1368DR,5492,7669,14994,0.163,551
2021-05-01T15:50:48,42.805,6.029,CST-1368DR,5492,7669,14994,0.163,551
2021-05-01T15:53:49,42.805,6.029,CST-1368DR,5492,7667,14990,0.164,551
2021-05-01T15:56:51,42.805,6.029,CST-1368DR,5492,7664,14985,0.165,551
2021-05-01T15:59:52,42.805,6.029,CST-1368DR,5492,7669,14994,0.163,551
2021-05-01T16:02:54,42.805,6.029,CST-1368DR,5492,7668,14992,0.163,551
2021-05-01T16:05:56,42.805,6.029,CST-1368DR,5492,7667,14990,0.164,551
2021-05-01T16:08:57,42.805,6.029,CST-1368DR,5492,7666,14988,0.164,551
2021-05-01T16:11:59,42.805,6.029,CST-1368DR,5492,7667,14989,0.164,551
2021-05-01T16:15:00,42.805,6.029,CST-1368DR,5492,7669,14993,0.163,551
2021-05-01T16:18:02,42.805,6.029,CST-1368DR,5492,7668,14992,0.163,551
2021-05-01T16:21:03,42.805,6.029,CST-1368DR,5492,7668,14993,0.163,551
2021-05-01T16:24:05,42.805,6.029,CST-1368DR,5492,7668,14992,0.163,551
2021-05-01T16:27:07,42.805,6.029,CST-1368DR,5492,7668,14992,0.163,551
2021-05-01T16:30:08,42.805,6.029,CST-1368DR,5492,7668,14991,0.163,551
2021-05-01T16:33:10,42.805,6.029,CST-1368DR,5492,7669,14994,0.163,551
2021-05-01T16:36:11,42.805,6.029,CST-1368DR,5492,7669,14994,0.163,551
2021-05-01T16:39:13,42.805,6.029,CST-1368DR,5492,7665,14986,0.165,551
2021-05-01T16:42:15,42.805,6.029,CST-1368DR,5492,7669,14993,0.163,551
2021-05-01T16:45:16,42.805,6.029,CST-1368DR,5492,7665,14987,0.164,551
2021-05-01T16:48:18,42.805,6.029,CST-1368DR,5492,7668,14992,0.163,551
2021-05-01T16:51:19,42.805,6.029,CST-1368DR,5492,7668,14992,0.163,551